When you browse on this site, cookies collect data to enhance your experience and personalize the content and advertising you see.
Visit our Privacy Policy to learn more. By continuing to use the site, you agree to this use of cookies and data.
  • In Schweiz
  • Länderverzeichnis
  • Für 7 Tage
  • Wassertemperatur
  • Wetterkarte
  • Widgets
  • user-avatar
    Anmelden

    Stündliche Wetter Rawda

    Heute, 23 Januar, Donnerstag

    Zeit Temperatur Niederschläge Wind Luftdruck Luftfeuchtigkeit
    00:00 +1°C° 0 mm 4 m/S 764 mmHg 51%
    01:00 +1°C° 0 mm 5 m/S 764 mmHg 48%
    02:00 +2°C° 0 mm 6 m/S 764 mmHg 45%
    03:00 +1°C° 0 mm 6 m/S 765 mmHg 49%
    04:00 +1°C° 0 mm 6 m/S 765 mmHg 54%
    05:00 -1°C° 0 mm 6 m/S 766 mmHg 58%
    06:00 -1°C° 0 mm 6 m/S 767 mmHg 59%
    07:00 -1°C° 0 mm 7 m/S 768 mmHg 60%
    08:00 -1°C° 0 mm 7 m/S 769 mmHg 62%
    09:00 0°C° 0 mm 7 m/S 770 mmHg 58%
    10:00 +1°C° 0 mm 8 m/S 771 mmHg 54%
    11:00 +2°C° 0 mm 8 m/S 771 mmHg 50%
    12:00 +4°C° 0 mm 7 m/S 771 mmHg 47%
    13:00 +4°C° 0 mm 7 m/S 772 mmHg 44%
    14:00 +5°C° 0 mm 6 m/S 772 mmHg 41%
    15:00 +4°C° 0 mm 6 m/S 772 mmHg 46%
    16:00 +3°C° 0 mm 5 m/S 772 mmHg 51%
    17:00 +3°C° 0 mm 5 m/S 772 mmHg 55%
    18:00 +2°C° 0 mm 5 m/S 773 mmHg 58%
    19:00 +1°C° 0 mm 5 m/S 773 mmHg 61%
    20:00 0°C° 0 mm 5 m/S 774 mmHg 64%
    21:00 0°C° 0 mm 5 m/S 774 mmHg 66%
    22:00 0°C° 0 mm 4 m/S 774 mmHg 68%
    23:00 -1°C° 0 mm 4 m/S 774 mmHg 70%

    Morgen, 24 Januar, Freitag

    Zeit Temperatur Niederschläge Wind Luftdruck Luftfeuchtigkeit
    00:00 0°C° 0 mm 3 m/S 774 mmHg 70%
    01:00 0°C° 0 mm 3 m/S 775 mmHg 71%
    02:00 +1°C° 0 mm 2 m/S 775 mmHg 71%
    03:00 -1°C° 0 mm 2 m/S 774 mmHg 71%
    04:00 -1°C° 0 mm 2 m/S 774 mmHg 72%
    05:00 -1°C° 0 mm 2 m/S 774 mmHg 72%
    06:00 -1°C° 0 mm 2 m/S 774 mmHg 71%
    07:00 -1°C° 0 mm 2 m/S 774 mmHg 70%
    08:00 -1°C° 0 mm 2 m/S 774 mmHg 69%
    09:00 +2°C° 0 mm 2 m/S 774 mmHg 60%
    10:00 +3°C° 0 mm 3 m/S 774 mmHg 52%
    11:00 +4°C° 0 mm 3 m/S 774 mmHg 44%
    12:00 +5°C° 0 mm 4 m/S 773 mmHg 41%
    13:00 +6°C° 0 mm 4 m/S 773 mmHg 39%
    14:00 +7°C° 0 mm 5 m/S 772 mmHg 36%
    15:00 +6°C° 0 mm 5 m/S 772 mmHg 41%
    16:00 +5°C° 0 mm 5 m/S 772 mmHg 45%
    17:00 +4°C° 0 mm 4 m/S 771 mmHg 49%
    18:00 +3°C° 0 mm 4 m/S 771 mmHg 53%
    19:00 +3°C° 0 mm 4 m/S 771 mmHg 57%
    20:00 +1°C° 0 mm 4 m/S 771 mmHg 61%
    21:00 +1°C° 0 mm 4 m/S 771 mmHg 66%
    22:00 0°C° 0 mm 4 m/S 770 mmHg 70%
    23:00 0°C° 0 mm 4 m/S 770 mmHg 75%

    übermorgen, 25 Januar, Samstag

    Zeit Temperatur Niederschläge Wind Luftdruck Luftfeuchtigkeit
    00:00 0°C° 0 mm 4 m/S 770 mmHg 78%
    01:00 -1°C° 0 mm 4 m/S 769 mmHg 81%
    02:00 -1°C° 0 mm 4 m/S 769 mmHg 84%
    03:00 -1°C° 0 mm 4 m/S 768 mmHg 85%
    04:00 -1°C° 0 mm 4 m/S 768 mmHg 86%
    05:00 -1°C° 0 mm 4 m/S 768 mmHg 88%
    06:00 -1°C° 0 mm 4 m/S 768 mmHg 86%
    07:00 -1°C° 0 mm 4 m/S 768 mmHg 85%
    08:00 -1°C° 0 mm 4 m/S 768 mmHg 84%
    09:00 +1°C° 0 mm 4 m/S 768 mmHg 73%
    10:00 +4°C° 0 mm 4 m/S 767 mmHg 63%
    11:00 +6°C° 0 mm 4 m/S 767 mmHg 53%
    12:00 +7°C° 0 mm 4 m/S 767 mmHg 50%
    13:00 +8°C° 0 mm 4 m/S 767 mmHg 46%
    14:00 +11°C° 0 mm 4 m/S 766 mmHg 43%
    15:00 +9°C° 0 mm 3 m/S 766 mmHg 48%
    16:00 +8°C° 0 mm 3 m/S 766 mmHg 53%
    17:00 +7°C° 0 mm 3 m/S 766 mmHg 57%
    18:00 +7°C° 0 mm 3 m/S 766 mmHg 59%
    19:00 +5°C° 0 mm 3 m/S 766 mmHg 61%
    20:00 +4°C° 0 mm 3 m/S 766 mmHg 63%
    21:00 +4°C° 0 mm 3 m/S 766 mmHg 63%
    22:00 +4°C° 0 mm 3 m/S 767 mmHg 62%
    23:00 +3°C° 0 mm 3 m/S 767 mmHg 62%

    26 Januar, Sonntag

    Zeit Temperatur Niederschläge Wind Luftdruck Luftfeuchtigkeit
    00:00 +3°C° 0 mm 3 m/S 767 mmHg 62%
    01:00 +3°C° 0 mm 3 m/S 767 mmHg 62%
    02:00 +3°C° 0 mm 3 m/S 767 mmHg 62%
    03:00 +3°C° 0 mm 3 m/S 767 mmHg 62%
    04:00 +3°C° 0 mm 3 m/S 766 mmHg 63%
    05:00 +3°C° 0 mm 3 m/S 766 mmHg 64%
    06:00 +3°C° 0 mm 3 m/S 767 mmHg 64%
    07:00 +3°C° 0 mm 3 m/S 767 mmHg 65%
    08:00 +3°C° 0 mm 3 m/S 767 mmHg 65%
    09:00 +6°C° 0 mm 2 m/S 767 mmHg 59%
    10:00 +7°C° 0 mm 2 m/S 768 mmHg 52%
    11:00 +9°C° 0 mm 2 m/S 768 mmHg 46%
    12:00 +10°C° 0 mm 2 m/S 768 mmHg 45%
    13:00 +12°C° 0 mm 1 m/S 767 mmHg 43%
    14:00 +13°C° 0 mm 1 m/S 767 mmHg 42%
    15:00 +12°C° 0 mm 1 m/S 767 mmHg 48%
    16:00 +10°C° 0 mm 1 m/S 767 mmHg 54%
    17:00 +8°C° 0 mm 2 m/S 767 mmHg 60%
    18:00 +8°C° 0 mm 2 m/S 767 mmHg 64%
    19:00 +7°C° 0 mm 2 m/S 767 mmHg 67%
    20:00 +6°C° 0 mm 2 m/S 767 mmHg 71%
    21:00 +6°C° 0 mm 2 m/S 768 mmHg 72%
    22:00 +6°C° 0 mm 2 m/S 768 mmHg 74%
    23:00 +5°C° 0 mm 2 m/S 768 mmHg 75%

    27 Januar, Montag

    Zeit Temperatur Niederschläge Wind Luftdruck Luftfeuchtigkeit
    00:00 +5°C° 0 mm 2 m/S 767 mmHg 76%
    01:00 +6°C° 0 mm 1 m/S 767 mmHg 78%
    02:00 +6°C° 0 mm 1 m/S 767 mmHg 79%
    03:00 +6°C° 0 mm 1 m/S 766 mmHg 78%
    04:00 +5°C° 0 mm 2 m/S 766 mmHg 78%
    05:00 +5°C° 0 mm 2 m/S 766 mmHg 77%
    06:00 +6°C° 0 mm 2 m/S 766 mmHg 78%
    07:00 +6°C° 0 mm 2 m/S 766 mmHg 79%
    08:00 +7°C° 0 mm 1 m/S 766 mmHg 80%
    09:00 +8°C° 0 mm 1 m/S 765 mmHg 79%
    10:00 +9°C° 0 mm 1 m/S 765 mmHg 78%
    11:00 +9°C° 0 mm 2 m/S 765 mmHg 77%
    12:00 +9°C° 0.1 mm 2 m/S 765 mmHg 79%
    13:00 +9°C° 0.1 mm 2 m/S 764 mmHg 82%
    14:00 +9°C° 0.1 mm 2 m/S 764 mmHg 84%
    15:00 +9°C° 0.5 mm 2 m/S 764 mmHg 88%
    16:00 +9°C° 0.5 mm 1 m/S 764 mmHg 93%
    17:00 +9°C° 0.5 mm 1 m/S 763 mmHg 97%
    18:00 +9°C° 0.4 mm 1 m/S 763 mmHg 97%
    19:00 +9°C° 0.4 mm 1 m/S 763 mmHg 97%
    20:00 +9°C° 0.4 mm 1 m/S 763 mmHg 97%
    21:00 +7°C° 0.7 mm 2 m/S 763 mmHg 95%
    22:00 +7°C° 0.7 mm 2 m/S 763 mmHg 92%
    23:00 +7°C° 0.7 mm 3 m/S 763 mmHg 90%

    28 Januar, Dienstag

    Zeit Temperatur Niederschläge Wind Luftdruck Luftfeuchtigkeit
    00:00 +7°C° 0.3 mm 3 m/S 763 mmHg 88%
    01:00 +5°C° 0.3 mm 3 m/S 763 mmHg 86%
    02:00 +5°C° 0.3 mm 3 m/S 763 mmHg 84%
    03:00 +5°C° 0.1 mm 3 m/S 763 mmHg 84%
    04:00 +5°C° 0.1 mm 3 m/S 763 mmHg 84%
    05:00 +4°C° 0.1 mm 3 m/S 763 mmHg 84%
    06:00 +4°C° 0 mm 3 m/S 763 mmHg 86%
    07:00 +5°C° 0 mm 2 m/S 763 mmHg 87%
    08:00 +4°C° 0 mm 2 m/S 764 mmHg 88%
    09:00 +6°C° 0 mm 2 m/S 764 mmHg 82%
    10:00 +7°C° 0 mm 3 m/S 764 mmHg 76%
    11:00 +9°C° 0 mm 3 m/S 764 mmHg 71%
    12:00 +10°C° 0 mm 2 m/S 764 mmHg 68%
    13:00 +12°C° 0 mm 2 m/S 763 mmHg 64%
    14:00 +12°C° 0 mm 2 m/S 763 mmHg 61%
    15:00 +12°C° 0 mm 2 m/S 763 mmHg 64%
    16:00 +10°C° 0 mm 2 m/S 763 mmHg 67%
    17:00 +10°C° 0 mm 1 m/S 763 mmHg 70%
    18:00 +9°C° 0 mm 2 m/S 763 mmHg 73%
    19:00 +8°C° 0 mm 2 m/S 764 mmHg 76%
    20:00 +8°C° 0 mm 2 m/S 764 mmHg 79%
    21:00 +7°C° 0 mm 2 m/S 764 mmHg 79%
    22:00 +7°C° 0 mm 2 m/S 764 mmHg 80%
    23:00 +7°C° 0 mm 2 m/S 764 mmHg 80%
    Mehr zeigen